Location: Saluda
(35.2377°N, 82.3468°W)
Time: 04:36:53
(UTC+00:00)

Vanguard 2 Rocket - Pass Details

Date: 08 October 2022
Orbit: 555 x 3321 km, 32.9° (Epoch: 05 December)

Event Time Altitude Azimuth Distance (km) Brightness Sun altitude
Rises 00:47:58 0° 223° (SW) 7,219 12.0 -21.9°
Reaches altitude 10° 00:53:06 10° 217° (SW) 6,266 11.5 -22.9°
Maximum altitude 01:11:41 47° 152° (SSE) 3,593 9.5 -26.6°
Enters shadow 01:16:59 39° 114° (ESE) 3,629 9.3 -27.7°
Drops below altitude 10° 01:25:25 10° 84° (E) 4,765 - -29.3°
Sets 01:28:40 0° 79° (ENE) 5,444 - -30.0°
